Quad City International Airport
KMLI : now visible

Airfield :











YOU CAN JOIN US ON...

 
LOGIN :

Register | Disclaimer

   EN    FR    IT 

 









Legend :    VFR   Marginal VFR   IFR   Intensive IFR   Very Intensive IFR
Visi :
Ceiling :
>= 8 km
>= 3000ft
5 to 8 km
1000 to 3000 ft
1500m to 5 km
500 to 1000 ft
800 to 1500m
200 to 500 ft
< 800m
< 200 ft
Symbols :   Thunderstorms  Fog  Heavy snow  Heavy precipitations  Wind > 20 kt






- Airport Elevation : 590 ft
- IATA code : MLI


KMLI - Quad City International

CURRENT METAR :
  • 281352Z 13003KT 10SM CLR M19/M22 A3067 RMK AO2 SLP400 T11891217

EXPIRED METARs :
  • 281252Z 00000KT 10SM CLR M19/M22 A3066 RMK AO2 SLP395 T11941222
  • 281152Z 00000KT 10SM CLR M18/M21 A3063 RMK AO2 SLP388 I6000 T11781211 11144 21200 53006

TAF KMLI
Valid from the 28 at 12:00 until the 29 at 12:00 UTC


281142Z 2812/2912 00000KT P6SM SKC
FM281900 13006KT P6SM SCT150
KZAU FIR / North America



MET'MAP, your aeronautical weather chart ! - Copyright ORBIFLY December 2007 - Disclaimer

ORBIFLY MET'MAP TEAM :

Programming & Development : Alexandra Zaïnal
Concept & original design : Baudouin d'Aumeries
Assistance for programming : Marc-Olivier Méhu
Technical & hardware support : Manuel Goepfert

Contact : metmap@orbifly.com




SOURCES & CREDITS :

   NOAA       Earth
Advisory